N40AV KBHM-KBHM

Flight info

Callsign N40AV
Flight time 0h 5m
Altitude VFR
Route
Aircraft R66/L-DOV/C

Departure

Time 2026-04-25 01:55
Airport Birmingham-Shuttlesworth International Airport (KBHM)

Arrival

Time 2026-04-25 02:00
Airport Birmingham-Shuttlesworth International Airport (KBHM)
Time Latitude Longitude Altitude Speed Heading
2026-04-25 01:55 33.42562 -86.63591 1628 ft 124 kts 355°
2026-04-25 01:55 33.43415 -86.63644 1629 ft 122 kts 353°
2026-04-25 01:55 33.44243 -86.63775 1630 ft 121 kts 345°
2026-04-25 01:55 33.45069 -86.63986 1630 ft 121 kts 342°
2026-04-25 01:56 33.45892 -86.64263 1630 ft 122 kts 339°
2026-04-25 01:56 33.46697 -86.64562 1631 ft 123 kts 339°
2026-04-25 01:56 33.47517 -86.64867 1632 ft 122 kts 339°
2026-04-25 01:56 33.48326 -86.65160 1629 ft 123 kts 339°
2026-04-25 01:57 33.49932 -86.65829 1630 ft 121 kts 329°
2026-04-25 01:57 33.50679 -86.66319 1633 ft 123 kts 325°
2026-04-25 01:57 33.51359 -86.66937 1627 ft 121 kts 310°
2026-04-25 01:58 33.51937 -86.67656 1632 ft 120 kts 309°
2026-04-25 01:58 33.52501 -86.68377 1657 ft 117 kts 306°
2026-04-25 01:58 33.52984 -86.69130 1666 ft 111 kts 298°
2026-04-25 01:58 33.53399 -86.69888 1667 ft 107 kts 297°
2026-04-25 01:59 33.53828 -86.70575 1670 ft 99 kts 302°
2026-04-25 01:59 33.54273 -86.71183 1569 ft 97 kts 304°
2026-04-25 01:59 33.54702 -86.71810 1397 ft 98 kts 303°
2026-04-25 01:59 33.55108 -86.72467 1272 ft 96 kts 302°
2026-04-25 02:00 33.55469 -86.73080 1164 ft 83 kts 300°
2026-04-25 02:00 33.55766 -86.73593 1021 ft 68 kts 300°
2026-04-25 02:00 33.55989 -86.73984 888 ft 47 kts 307°
2026-04-25 02:00 33.56192 -86.74202 812 ft 33 kts 330°
2026-04-25 02:01 33.56387 -86.74286 754 ft 26 kts 343°
2026-04-25 02:01 33.56541 -86.74304 701 ft 19 kts
2026-04-25 02:01 33.56615 -86.74299 679 ft 1 kts 297°
2026-04-25 02:01 33.56610 -86.74287 683 ft 2 kts 266°
2026-04-25 02:02 33.56615 -86.74308 685 ft 2 kts 251°
2026-04-25 02:02 33.56616 -86.74315 678 ft 2 kts 239°
2026-04-25 02:02 33.56618 -86.74311 678 ft 1 kts 245°
2026-04-25 02:02 33.56617 -86.74322 669 ft 0 kts 243°